This demonstration page uses our WeatherBlox Daily Observations layout. Learn more.

Left ArrowRight Arrow

Hourly Observations for July 11, 2016

Temp ( °F °C ) Dew Point ( °F °C ) Humidity (%) Winds ( mph kmh ) Pressure ( in mb ) Visibility ( mi km ) Precip ( " mm )
12:59 am 00:59 Mostly Clear 75 23.9 68 20 79 79 S 6 9 30.04 1017 10 16 0.00 0.00
1:59 am 01:59 Partly Cloudy 75 23.9 69 20.6 82 82 SSE 3 6 30.04 1017 10 16 0.00 0.00
2:59 am 02:59 Partly Cloudy 74 23.3 69 20.6 85 85 SSE 3 6 30.02 1017 10 16 0.00 0.00
3:59 am 03:59 Partly Cloudy 72 22.2 68 20 87 87 Calm 30.03 1017 10 16 0.00 0.00
4:59 am 04:59 Partly Cloudy 71 21.7 68 20 90 90 Calm 30.04 1017 10 16 0.00 0.00
5:59 am 05:59 Partly Cloudy 71 21.7 68 20 90 90 Calm 30.05 1018 9 14 0.00 0.00
6:59 am 06:59 Partly Cloudy 74 23.3 71 21.7 91 91 Calm 30.05 1018 8 13 0.00 0.00
7:59 am 07:59 Mostly Cloudy 81 27.2 73 22.8 77 77 NNW 5 7 30.07 1018 10 16 0.00 0.00
8:59 am 08:59 Mostly Cloudy 82 27.8 70 21.1 67 67 Calm 30.08 1019 10 16 0.00 0.00
9:59 am 09:59 Mostly Cloudy 83 28.3 70 21.1 65 65 N 6 9 30.10 1019 10 16 0.00 0.00
10:59 am 10:59 Mostly Cloudy 84 28.9 70 21.1 63 63 NNE 8 13 30.10 1019 10 16 0.00 0.00
11:59 am 11:59 Mostly Cloudy 85 29.4 70 21.1 61 61 NNE 9 15 30.10 1019 10 16 0.00 0.00
12:59 pm 12:59 Mostly Cloudy 85 29.4 72 22.2 65 65 NNE 12 19 30.10 1019 10 16 0.00 0.00
1:59 pm 13:59 Mostly Cloudy 83 28.3 71 21.7 67 67 ENE 10 17 30.09 1019 10 16 0.00 0.00
2:59 pm 14:59 Mostly Cloudy 83 28.3 71 21.7 67 67 ENE 10 17 30.08 1019 10 16 0.00 0.00
3:59 pm 15:59 Mostly Cloudy 83 28.3 71 21.7 67 67 E 10 17 30.07 1018 10 16 0.00 0.00
4:59 pm 16:59 Mostly Cloudy 81 27.2 70 21.1 69 69 ENE 15 24 30.07 1018 10 16 0.00 0.00
5:59 pm 17:59 Mostly Cloudy 83 28.3 71 21.7 67 67 NE 13 20 30.06 1018 10 16 0.00 0.00
6:59 pm 18:59 Mostly Cloudy 81 27.2 69 20.6 67 67 E 9 15 30.09 1019 10 16 0.00 0.00
7:59 pm 19:59 Mostly Cloudy 80 26.7 68 20 67 67 E 9 15 30.09 1019 10 16 0.00 0.00
8:59 pm 20:59 Mostly Cloudy 78 25.6 68 20 71 71 ESE 6 9 30.09 1019 10 16 0.00 0.00
9:59 pm 21:59 Mostly Cloudy 78 25.6 68 20 71 71 SE 6 9 30.09 1019 10 16 0.00 0.00
10:59 pm 22:59 Mostly Cloudy 78 25.6 69 20.6 74 74 E 5 7 30.10 1019 10 16 0.00 0.00
11:59 pm 23:59 Mostly Cloudy 77 25 69 20.6 77 77 SE 5 7 30.09 1019 10 16 0.00 0.00

Powered by AerisWeather